Weather in Uglichi

Russia / Kaluga Oblast     54°49′03″N   37°09′16″E
temp.,
°C
wind,
m/s
gust,
m/s
humid.,
%
clouds,
%
prec.,
mm/h
press.,
hPa
HPBL,
m
6 march, sat
sat600:00−10w12880 0.0 101521
03:00−10w128920 0.0 101721
06:00−12nw229270 0.0 101621
09:00−10nw239442 0.0 1018136
12:00−5nw358529 0.0 1018629
15:00−5wnw467860 0.1 10161044
18:00−8w348593 0.1 101669
21:00−11wsw348746 0.1 101646
7 march, sun
sun700:00−11sw47910 0.0 1014128
03:00−10sw613888 0.0 1011340
06:00−7sw8169094 0.0 1006739
09:00−6sw10179197 0.4 10021031
12:00−3sw111892100 0.8 9971231
15:00−4wnw81670100 2.8 9961389
18:00−7w4117467 0.0 998213
21:00−8sw6137733 0.0 999310
8 march, mon
mon800:00−8sw6148083 0.0 997494
03:00−6wsw7149491 0.1 995737
06:00−6wsw4896100 0.9 994530
09:00−9nw61293100 2.6 997779
12:00−7wnw71082100 0.2 1000993
15:00−7wnw8128399 0.3 10031237
18:00−7wnw51192100 0.1 1005664
21:00−11wnw489287 0.3 1008201
9 march, tue
tue900:00−12wnw369669 0.0 1010123
03:00−12wnw359780 0.1 1012132
06:00−13nw379598 0.1 1014278
09:00−14nnw479199 0.3 1016538
12:00−12nw4687100 0.1 1017624
15:00−10nw4681100 0.1 1018815
18:00−13wnw238771 0.0 101822
21:00−13w239083 0.0 102055
10 march, wed
wed1000:00−13s229497 0.1 101954
03:00−12sse239699 0.8 1018131
06:00−11e3596100 1.5 1018174
09:00−15ne5994100 2.3 1019345
12:00−14ne469199 0.1 1021420
15:00−13nne458379 0.1 1022503
18:00−17ne33892 0.0 102344
21:00−21ne23961 0.0 102621